Home > Weather > Qyzylorda > Past weeks

Flag for Kazakhstan Past Weather in Qyzylorda, Kazakhstan — Yesterday and Last 2 Weeks

Now
86 °F

Passing clouds.


Feels Like: 83 °F
Forecast: 62 / 89 °F
Wind: 10 mph from North

Location: Kzyl-Orda

Current Time: May 24, 2016 at 7:51:40 PM

Latest Report: May 24, 2016 at 7:00 PM


Visibility: N/A

Pressure: 29.80 "Hg

Humidity: 14%

Dew Point: 32 °F

Location of QyzylordaLocation

Past Weather in Qyzylorda — Graph

°F

Qyzylorda Temperature Yesterday

Maximum temperature yesterday: 82 °F (at 3:30 PM)
Minimum temperature yesterday: 57 °F (at 4:00 AM)
Average temperature yesterday: 72 °F

High & Low Weather Summary for the Past Weeks

 TemperatureHumidityPressure
High90 °F (May 21, 5:30 PM)94% (May 15, 5:30 AM)30.21 "Hg (May 15, 5:30 AM)
Low48 °F (May 18, 5:30 AM)7% (May 21, 5:30 PM)29.62 "Hg (May 14, 4:00 PM)
Average70 °F42%29.93 "Hg
* Reported May 9 6:00 PM — May 24 6:30 PM, Qyzylorda, Weather by CustomWeather, © 2016

Note: Actual official high and low records may vary slightly from our data, if they occured in-between our weather recording intervals... More about our weather records

Advertising

Qyzylorda Weather History for the Previous 24 Hours

Scroll right to see more
 ConditionsComfort  
Time TempWeatherWind HumidityBarometerVisibility
6:30 PM
Tue, May 24
86 °FSunny.10 mph14%29.80 "Hg10 mi
6:00 PM86 °FPassing clouds.10 mph13%29.80 "HgN/A
5:30 PM86 °FSunny.15 mph13%29.80 "Hg10 mi
5:00 PM86 °FSunny.13 mph13%29.80 "Hg10 mi
4:30 PM88 °FSunny.13 mph13%29.80 "Hg10 mi
4:00 PM88 °FPassing clouds.13 mph13%29.83 "HgN/A
3:30 PM86 °FSunny.6 mph17%29.83 "Hg10 mi
3:00 PM88 °FPassing clouds.6 mph16%29.83 "HgN/A
2:30 PM88 °FPassing clouds.8 mph15%29.83 "HgN/A
2:00 PM86 °FPassing clouds.8 mph17%29.83 "HgN/A
1:30 PM86 °FPassing clouds.10 mph15%29.86 "HgN/A
1:00 PM84 °FPassing clouds.8 mph19%29.86 "HgN/A
12:30 PM84 °FPassing clouds.8 mph19%29.86 "HgN/A
12:00 PM82 °FPassing clouds.8 mph23%29.86 "HgN/A
11:30 AM82 °FPassing clouds.8 mph23%29.86 "HgN/A
11:00 AM81 °FPassing clouds.8 mph26%29.89 "HgN/A
10:30 AM81 °FPassing clouds.6 mph26%29.89 "HgN/A
10:00 AM77 °FSunny.6 mph32%29.89 "Hg10 mi
9:30 AM75 °FPassing clouds.3 mph34%29.89 "HgN/A
9:00 AM70 °FPassing clouds.3 mph43%29.89 "HgN/A
8:30 AM68 °FPassing clouds.3 mph46%29.89 "HgN/A
8:00 AM63 °FSunny.3 mph52%29.89 "Hg10 mi
7:30 AM61 °FSunny.3 mph55%29.89 "Hg10 mi
7:00 AM55 °FPassing clouds.3 mph63%29.89 "HgN/A
6:30 AM54 °FClear.1 mph67%29.89 "Hg10 mi
6:00 AM55 °FClear.3 mph63%29.86 "Hg10 mi
5:30 AM55 °FClear.3 mph63%29.86 "Hg10 mi
5:00 AM55 °FClear.1 mph67%29.86 "Hg10 mi
4:00 AM57 °FClear.3 mph63%29.86 "Hg10 mi
3:00 AM59 °FClear.3 mph59%29.86 "Hg10 mi
2:00 AM61 °FClear.6 mph55%29.86 "Hg10 mi
1:00 AM63 °FClear.3 mph52%29.89 "Hg10 mi
12:00 AM66 °FClear.3 mph49%29.89 "Hg10 mi
11:00 PM
Mon, May 23
70 °FPassing clouds.3 mph43%29.89 "HgN/A
10:00 PM72 °FSunny.3 mph38%29.86 "Hg10 mi
9:00 PM77 °FSunny.3 mph30%29.86 "Hg10 mi
8:00 PM81 °FSunny.8 mph26%29.86 "Hg10 mi
7:30 PM81 °FPassing clouds.10 mph24%29.86 "HgN/A
7:00 PM82 °FPassing clouds.10 mph23%29.83 "HgN/A
Weather by CustomWeather, © 2016

See weather overviewHow to use our weather pages